Flag for U.S.A. Weather past 2 weeks in Manhattan, Kansas, U.S.A.

Now
72 °F

Rain. Passing clouds.


Feels Like: 68 °F
Forecast: 69 / 81 °F
Wind: 3 mph from North

Location: Manhattan Municipal Airport

Current Time: Aug 4, 2015 at 11:38:59 PM

Latest Report: Aug 4, 2015 at 10:52 PM


Visibility: 7 mi

Pressure: 29.91 "Hg

Humidity: 93%

Dew point: 70 °F

Location of ManhattanLocation

Historic Weather in Manhattan — Graph

°F

Manhattan temperature yesterday

Maximum temperature yesterday: 94 °F (at 2:52 PM)
Minimum temperature yesterday: 71 °F (at 5:52 AM)
Average temperature yesterday: 83 °F

Past Weeks' High & Low Weather Summary

 TemperatureHumidityPressure
High102 °F (Jul 24, 4:52 PM)97% (Jul 22, 3:52 AM)30.22 "Hg (Jul 22, 3:52 AM)
Low63 °F (Jul 31, 5:52 AM)39% (Jul 24, 5:52 PM)29.77 "Hg (Jul 28, 6:52 AM)
Average81 °F72%29.93 "Hg
* Reported Jul 20 9:52 PM — Aug 4 9:52 PM, Manhattan, Weather by CustomWeather, © 2015

Note: Actual official high and low records may vary slightly from our data, if they occured in-between our weather recording intervals... More about our weather records

Advertising

Manhattan weather history for previous 24 hours

 ConditionsComfort  
Time TempWeatherWind HumidityBarometerVisibility
9:52 PM
Tue, Aug 4
74 °FPassing clouds.5 mph91%29.94 "Hg10 mi
8:52 PM74 °FPartly sunny.5 mph94%29.92 "Hg10 mi
7:52 PM76 °FScattered clouds.5 mph88%29.90 "Hg10 mi
6:52 PM76 °FSunny.5 mph88%29.91 "Hg10 mi
5:52 PM76 °FLight rain. Partly sunny.No wind88%29.93 "Hg10 mi
4:52 PM78 °FLight rain. Broken clouds.No wind84%29.93 "Hg10 mi
4:02 PM77 °FLight rain. Mostly cloudy.9 mph85%29.93 "Hg10 mi
3:52 PM77 °FThundershowers. Mostly cloudy.13 mph85%29.90 "Hg10 mi
2:52 PM77 °FThunderstorms. Overcast.No wind88%29.89 "Hg10 mi
1:52 PM88 °FThundershowers. Scattered clouds.9 mph57%29.88 "Hg10 mi
12:52 PM87 °FOvercast.9 mph59%29.89 "Hg10 mi
11:52 AM87 °FPartly sunny.7 mph59%29.91 "Hg10 mi
10:52 AM84 °FSunny.5 mph61%29.93 "Hg10 mi
9:52 AM81 °FSunny.3 mph67%29.93 "Hg10 mi
8:52 AM77 °FSunny.No wind79%29.92 "Hg10 mi
7:52 AM74 °FSunny.No wind88%29.92 "Hg10 mi
6:52 AM72 °FClear.3 mph93%29.92 "Hg10 mi
5:52 AM71 °FClear.No wind96%29.88 "Hg10 mi
4:52 AM72 °FClear.No wind93%29.87 "Hg10 mi
3:52 AM72 °FClear.No wind97%29.87 "Hg10 mi
2:52 AM74 °FClear.No wind91%29.88 "Hg10 mi
1:52 AM75 °FClear.5 mph90%29.89 "Hg10 mi
12:52 AM76 °FClear.3 mph91%29.88 "Hg10 mi
11:52 PM
Mon, Aug 3
78 °FClear.6 mph87%29.88 "Hg10 mi
Weather by CustomWeather, © 2015

See weather overviewHow to use our weather pages